This is the latest recevied weather packets stored in our database for station/object EA4HRG-10. If no packets are shown the sender has not sent any weather packets the latest 10 day(s).
| Time | Temp. | Humidity | Pressure | Rain* | Wind** | Luminosity | Snow |
|---|---|---|---|---|---|---|---|
| 1788553540 | 26.11° C | 24% | 1018.9 hPa | - | - | - | - |
| 1788552640 | 26.67° C | 22% | 1018.4 hPa | - | - | - | - |
| 1788551740 | 26.67° C | 23% | 1018.4 hPa | - | - | - | - |
| 1788550840 | 27.22° C | 23% | 1017.9 hPa | - | - | - | - |
| 1788549940 | 27.22° C | 23% | 1017.5 hPa | - | - | - | - |
| 1788549040 | 27.78° C | 21% | 1017.1 hPa | - | - | - | - |
| 1788548147 | 28.89° C | 21% | 1016.6 hPa | - | - | - | - |
| 1788547240 | 30° C | 19% | 1016 hPa | - | - | - | - |
| 1788546340 | 31.11° C | 18% | 1015.5 hPa | - | - | - | - |
| 1788545440 | 32.22° C | 17% | 1014.9 hPa | - | - | - | - |
| 1788544540 | 33.33° C | 15% | 1014.6 hPa | - | - | - | - |
| 1788543640 | 33.89° C | 15% | 1014.2 hPa | - | - | - | - |
| 1788542740 | 34.44° C | 14% | 1013.9 hPa | - | - | - | - |
| 1788541840 | 35.56° C | 14% | 1013.7 hPa | - | - | - | - |
| 1788540940 | 36.67° C | 13% | 1013.2 hPa | - | - | - | - |
| 1788540040 | 38.89° C | 11% | 1012.6 hPa | - | - | - | - |
| 1788539140 | 39.44° C | 11% | 1012.4 hPa | - | - | - | - |
| 1788538240 | 40° C | 11% | 1012.4 hPa | - | - | - | - |
| 1788537340 | 41.67° C | 10% | 1011.6 hPa | - | - | - | - |
| 1788536447 | 40° C | 11% | 1012.3 hPa | - | - | - | - |
| 1788535540 | 41.11° C | 10% | 1012 hPa | - | - | - | - |
| 1788534640 | 41.67° C | 10% | 1012 hPa | - | - | - | - |
| 1788533752 | 41.67° C | 10% | 1012.3 hPa | - | - | - | - |
| 1788532840 | 42.22° C | 10% | 1012.2 hPa | - | - | - | - |
| 1788531940 | 42.22° C | 9% | 1012.3 hPa | - | - | - | - |
* Rain since midnight (hover to see other rain measurements)
** Current wind speed in m/s (hover to see current wind gust speed)